Location: Brno
(49.2000°N, 16.6330°E)
Time: 14:33:04
(UTC+02:00)

Cosmos 1603 - Visible Passes

Search period start: 02 July 2015 00:00
Search period end: 12 July 2015 00:00
Orbit: 830 x 861 km, 71.0° (Epoch: 01 July)

Date Brightness Start Highest point End Pass type
(mag) Time Alt. Az. Time Alt. Az. Time Alt. Az.
02 Jul 5.5 01:27:09 10° NNW 01:32:09 31° NE 01:37:10 10° ESE visible
02 Jul 3.8 03:11:05 10° NW 03:16:41 58° WSW 03:22:12 10° S visible
02 Jul 6.7 23:31:11 10° NNE 23:32:01 10° NNE 23:33:00 10° NNE visible
03 Jul 5.5 01:13:17 10° NNW 01:18:16 30° NE 01:23:14 10° ESE visible
03 Jul 3.8 02:57:12 10° NW 03:02:49 60° WSW 03:08:21 10° S visible
03 Jul 6.7 23:17:30 10° NNE 23:18:07 10° NNE 23:18:52 10° NNE visible
04 Jul 5.5 00:59:25 10° NNW 01:04:22 29° NE 01:09:19 10° ESE visible
04 Jul 3.7 02:43:20 10° NW 02:48:58 61° WSW 02:54:19 11° S visible
04 Jul 6.7 23:03:57 10° NNE 23:04:12 10° NNE 23:04:35 10° NNE visible
05 Jul 5.5 00:45:34 10° NNW 00:50:28 29° NE 00:55:23 10° ESE visible
05 Jul 3.7 02:29:27 10° NNW 02:35:05 63° WSW 02:39:45 15° S visible
06 Jul 5.5 00:31:43 10° NNW 00:36:35 28° NE 00:41:28 10° ESE visible
06 Jul 3.7 02:15:34 10° NNW 02:21:13 65° WSW 02:25:19 19° S visible
06 Jul 5.6 04:03:14 10° W 04:04:22 10° W 04:05:08 10° WSW visible
07 Jul 5.5 00:17:52 10° NNW 00:22:41 28° NE 00:27:32 10° ESE visible
07 Jul 3.7 02:01:42 10° NNW 02:07:21 67° WSW 02:11:01 22° S visible
07 Jul 5.6 03:49:02 10° W 03:50:31 11° W 03:51:40 10° WSW visible
08 Jul 5.5 00:04:00 10° NNW 00:08:48 27° NE 00:13:36 10° ESE visible
08 Jul 3.7 01:47:49 10° NNW 01:53:30 69° WSW 01:56:48 25° S visible
08 Jul 5.6 03:34:54 10° WNW 03:36:41 11° W 03:38:07 10° WSW visible
08 Jul 5.5 23:50:09 10° NNW 23:54:54 27° NE 23:59:40 10° E visible
09 Jul 3.7 01:33:57 10° NNW 01:39:37 70° WSW 01:42:40 28° S visible
09 Jul 5.6 03:20:49 10° WNW 03:22:50 12° W 03:24:30 10° WSW visible
09 Jul 5.5 23:36:18 10° NNW 23:41:00 26° NE 23:45:44 10° E visible
10 Jul 3.7 01:20:04 10° NNW 01:25:45 72° WSW 01:28:36 30° SSE visible
10 Jul 5.6 03:06:46 10° WNW 03:08:59 12° W 03:10:28 11° WSW visible
10 Jul 5.5 23:22:26 10° NNW 23:27:06 26° NE 23:31:48 10° E visible
11 Jul 3.7 01:06:11 10° NNW 01:11:53 74° WSW 01:14:36 32° SSE visible
11 Jul 5.6 02:52:44 10° WNW 02:55:08 12° W 02:56:27 11° WSW visible
11 Jul 5.5 23:08:34 10° NNW 23:13:12 25° NE 23:17:52 10° E visible
